User: anonymous   Login
Location: Platte
(43.3870°N, 98.8440°W)
Time: 04:52:36
(UTC-06:00)
Language:

Landsat 7 - Orbit

View from above orbital plane
View from above orbital plane
View from above satellite
View from above satellite

Ground track
Ground track

The orbit data is extracted from the following two-line orbital elements,

1 25682U 99020A   16044.16822383  .00000157  00000-0  44879-4 0  9990
2 25682  98.2296 116.1865 0001082  81.8815 278.2511 14.57108720895239
Epoch (UTC): 13 February 2016 04:02:14
Eccentricity: 0.0001082
inclination: 98.2296°
perigee height: 702 km
apogee height: 703 km
right ascension of ascending node: 116.1865°
argument of perigee: 81.8815°
revolutions per day: 14.57108720
mean anomaly at epoch: 278.2511°
orbit number at epoch: 89523

The dashed part of the orbit path shows where the satellite is in the earth's shadow,  

DLR